Bridger Ridge

You may also find Bridger Weather data directly on their website HERE.

Elevation
8500ft
Jump to table bottom
Date Time Temperature
deg F
RH, % Wind Speed Wind Gust Wind Direction
03/25/19 01:00 20.0 94 15 24 SW - 215
03/25/19 00:00 20.3 95 14 26 SW - 211
03/24/19 23:00 20.8 95 12 20 S - 199
03/24/19 22:00 21.8 95 11 20 S - 194
03/24/19 21:00 23.8 95 8 13 S - 174
03/24/19 20:00 24.1 95 7 11 SE - 135
03/24/19 19:00 26.0 92 4 6 S - 185
03/24/19 18:00 27.7 90 5 9 SW - 212
03/24/19 17:00 28.4 78 6 10 S - 183
03/24/19 16:00 27.9 82 8 14 S - 202
03/24/19 15:00 28.6 77 11 16 S - 167
03/24/19 14:00 30.6 69 9 15 S - 160
03/24/19 13:00 30.7 71 6 11 SE - 150
03/24/19 12:00 28.4 77 8 15 SE - 125
03/24/19 11:00 27.2 79 11 18 E - 102
03/24/19 10:00 25.4 83 8 16 E - 97
03/24/19 09:00 24.3 81 4 6 E - 72
03/24/19 08:00 22.4 84 0 3 N - 7
03/24/19 07:00 21.6 86 0 4 N - 6
03/24/19 06:00 22.7 85 0 3 N - 348
03/24/19 05:00 21.7 86 0 2 NW - 323
03/24/19 04:00 21.5 85 1 4 N - 352
03/24/19 03:00 22.0 88 2 6 N - 13
03/24/19 02:00 22.8 87 2 5 N - 11
03/24/19 01:00 23.8 84 2 6 N - 358
03/24/19 00:00 24.7 84 2 5 N - 7
03/23/19 23:00 24.7 86 3 5 S - 191
03/23/19 22:00 24.2 94 5 7 S - 177
03/23/19 21:00 25.4 87 5 11 SW - 243
03/23/19 20:00 28.7 68 5 13 NE - 60
03/23/19 19:00 31.7 66 5 10 SE - 156
03/23/19 18:00 30.0 65 5 11 SE - 152
03/23/19 17:00 31.7 55 6 10 SE - 149
03/23/19 16:00 31.5 53 3 9 S - 192
03/23/19 15:00 33.2 56 7 16 W - 274
03/23/19 14:00 31.0 49 7 22 NW - 310
03/23/19 13:00 34.3 71 3 12 E - 72
03/23/19 12:00 31.1 84 4 8 SW - 236
03/23/19 11:00 28.2 81 3 8 NW - 313
03/23/19 10:00 23.9 94 5 8 SW - 230
03/23/19 09:00 22.3 95 5 7 S - 175
03/23/19 08:00 23.2 94 3 5 W - 268
03/23/19 07:00 22.1 95 5 8 SW - 211
03/23/19 06:00 22.4 96 7 10 S - 175
03/23/19 05:00 22.1 96 6 10 S - 192
03/23/19 04:00 22.6 95 9 13 S - 177
03/23/19 03:00 22.5 95 10 13 S - 174
03/23/19 02:00 21.6 95 9 13 S - 181
03/23/19 01:00 21.2 95 11 16 S - 166
03/23/19 00:00 21.0 96 12 17 S - 178